TimeEDT,TemperatureF,Dew PointF,Humidity,Sea Level PressureIn,VisibilityMPH,Wind Direction,Wind SpeedMPH,Gust SpeedMPH,PrecipitationIn,Events,Conditions,WindDirDegrees,DateUTC
12:53 AM,57.9,52.0,81,30.08,10.0,Calm,Calm,-,N/A,,Partly Cloudy,0,2013-08-15 04:53:00
1:53 AM,57.0,51.1,81,30.07,10.0,Calm,Calm,-,N/A,,Partly Cloudy,0,2013-08-15 05:53:00
2:53 AM,57.0,51.1,81,30.06,10.0,Calm,Calm,-,N/A,,Partly Cloudy,0,2013-08-15 06:53:00
3:53 AM,55.0,52.0,89,30.06,10.0,Calm,Calm,-,N/A,,Partly Cloudy,0,2013-08-15 07:53:00
4:53 AM,55.0,51.1,86,30.06,10.0,Calm,Calm,-,N/A,,Scattered Clouds,0,2013-08-15 08:53:00
5:53 AM,55.0,51.1,86,30.06,10.0,Calm,Calm,-,N/A,,Partly Cloudy,0,2013-08-15 09:53:00
6:53 AM,55.0,50.0,83,30.07,10.0,Calm,Calm,-,N/A,,Scattered Clouds,0,2013-08-15 10:53:00
7:53 AM,57.0,51.1,81,30.09,10.0,Calm,Calm,-,N/A,,Partly Cloudy,0,2013-08-15 11:53:00
8:53 AM,60.1,51.1,72,30.10,10.0,Calm,Calm,-,N/A,,Scattered Clouds,0,2013-08-15 12:53:00
9:53 AM,64.9,54.0,68,30.09,10.0,East,4.6,-,N/A,,Scattered Clouds,80,2013-08-15 13:53:00
10:53 AM,69.1,55.0,61,30.09,10.0,Variable,3.5,-,N/A,,Scattered Clouds,0,2013-08-15 14:53:00
11:53 AM,71.1,57.0,61,30.09,10.0,Variable,6.9,-,N/A,,Mostly Cloudy,0,2013-08-15 15:53:00
12:53 PM,73.0,55.9,55,30.07,10.0,ESE,6.9,-,N/A,,Mostly Cloudy,120,2013-08-15 16:53:00
1:53 PM,75.9,57.9,54,30.06,10.0,Variable,4.6,-,N/A,,Mostly Cloudy,0,2013-08-15 17:53:00
2:53 PM,77.0,59.0,54,30.05,10.0,SE,8.1,-,N/A,,Mostly Cloudy,140,2013-08-15 18:53:00
3:53 PM,77.0,57.0,50,30.03,10.0,East,5.8,-,N/A,,Scattered Clouds,80,2013-08-15 19:53:00
4:53 PM,77.0,57.9,52,30.01,10.0,Variable,5.8,-,N/A,,Scattered Clouds,0,2013-08-15 20:53:00
5:53 PM,77.0,57.9,52,30.02,10.0,Variable,3.5,-,N/A,,Scattered Clouds,0,2013-08-15 21:53:00
6:53 PM,75.0,60.1,60,30.02,10.0,SSE,3.5,-,N/A,,Scattered Clouds,150,2013-08-15 22:53:00
7:53 PM,73.0,59.0,61,30.03,10.0,SE,3.5,-,N/A,,Scattered Clouds,140,2013-08-15 23:53:00
8:53 PM,69.1,57.9,68,30.04,10.0,ESE,3.5,-,N/A,,Scattered Clouds,110,2013-08-16 00:53:00
9:53 PM,68.0,57.0,68,30.05,10.0,SE,4.6,-,N/A,,Partly Cloudy,130,2013-08-16 01:53:00
10:53 PM,66.0,55.9,70,30.07,10.0,Calm,Calm,-,N/A,,Partly Cloudy,0,2013-08-16 02:53:00
11:53 PM,64.9,55.9,73,30.08,10.0,South,3.5,-,N/A,,Partly Cloudy,190,2013-08-16 03:53:00